Location: Gleizolles
(44.4833°N, 6.7667°E)
Time: 20:54:39
(UTC+00:00)

A-11 Canister half - Pass Details

Date: 02 July 2024
Orbit: 1524 x 1684 km, 47.3° (Epoch: 18 July)

Event Time Altitude Azimuth Distance (km) Brightness Sun altitude
Rises 09:59:32 0° 237° (WSW) 4,812 11.5 60.7°
Reaches altitude 10° 10:02:40 10° 236° (SW) 3,806 11.1 61.1°
Maximum altitude 10:12:16 75° 153° (SSE) 1,605 11.2 62.4°
Drops below altitude 10° 10:21:36 10° 70° (ENE) 3,708 11.3 63.5°
Sets 10:24:37 0° 69° (ENE) 4,683 11.7 63.9°
